Regional Weather Roundup
Issued by NWS

Home | Current Version | Previous Version | Graphics & Text | Print | Product List | Glossary On
Versions: 1 2 3 4 5 6 7 8 9 10 11 12 13 14 15 16 17 18 19 20 21 22 23 24 25 26 27 28 29 30 31 32 33 34 35 36 37 38 39 40 41 42 43 44 45 46 47 48 49 50
000
ASUS45 KABQ 282301
RWRNM
NEW MEXICO REGIONAL WEATHER ROUNDUP
NATIONAL WEATHER SERVICE ALBUQUERQUE NM
500 PM MDT TUE JUL 28 2015

NOTE: "FAIR" MEANS FEW OR NO CLOUDS BELOW 12,000 FEET AGL WITH NO
       SIGNIFICANT WEATHER OR OBSTRUCTIONS TO VISION.

      THIS PRODUCT IS RELEASED AS TWO VERSIONS.  ONE VERSION NEAR
      THE TOP OF THE HOUR CONTAINING PRELIMINARY DATA FROM ALBUQUERQUE
      AND OTHER STATIONS.  A FINAL VERSION WITH ADDITIONAL DATA IS
      ISSUED ABOUT 10 MINUTES AFTER THE HOUR.

NMZ501-503-504-510>518-290000-
NORTHWEST PLATEAU/NORTHCENTRAL MOUNTAINS

CITY           SKY/WX    TMP DP  RH WIND       PRES   REMARKS
FARMINGTON     SUNNY     91  25   9 W7        30.09F
SANTA FE       PTSUNNY   89  39  17 VRB6      30.14F
TAOS           PTSUNNY   84  37  18 NW8       30.22S
ANGEL FIRE     MOCLDY    71  49  44 S10       30.35S

$$
NMZ402-403-502-505>509-290000-
WESTCENTRAL MOUNTAINS/SOUTHWEST MOUNTAINS

CITY           SKY/WX    TMP DP  RH WIND       PRES   REMARKS
GALLUP         PTSUNNY   88  39  17 W12       30.18F
GRANTS         LGT RAIN  74  51  43 SW18G26   30.24R
SILVER CITY      N/A     77  52  41 NW10      30.12F

$$
NMZ407-409-411-412-290000-
SOUTHERN DESERTS

CITY           SKY/WX    TMP DP  RH WIND       PRES   REMARKS
DEMING         PTSUNNY   96  50  20 SW23G32   29.98F
ALAMOGORDO     PTSUNNY   95  48  20 W21G29    29.96F
T OR C         LGT RAIN  82  58  43 S20G25    30.04R

$$
NMZ519>523-290000-
CENTRAL VALLEYS/CENTRAL HIGHLANDS

CITY           SKY/WX    TMP DP  RH WIND       PRES   REMARKS
ALBUQUERQUE    PTSUNNY   92  43  18 VRB3      30.07F
DOUBLE EAGLE   PTSUNNY   90  46  22 W7        30.12F
MORIARTY ARPT    N/A     85  39  19 S26G32    30.19R
CLINES CORNERS PTSUNNY   78  48  34 S20G29    30.23R
BELEN          FAIR      89  43  20 W22G28    30.08R
SOCORRO        NOT AVBL

$$
NMZ524>526-539-540-290000-
SOUTHCENTRAL MOUNTAINS

CITY           SKY/WX    TMP DP  RH WIND       PRES   REMARKS
RUIDOSO          N/A    N/A N/A N/A MISG        N/A

$$
NMZ527>531-290000-
NORTHEAST HIGHLANDS/NORTHEAST PLAINS

CITY           SKY/WX    TMP DP  RH WIND       PRES   REMARKS
LAS VEGAS      CLOUDY    69  53  56 E13       30.25S
RATON          CLOUDY    72  54  53 NE12      30.23F
CLAYTON        PTSUNNY   79  50  36 N9        30.13S

$$
NMZ532>537-290000-
EASTCENTRAL PLAINS

CITY           SKY/WX    TMP DP  RH WIND       PRES   REMARKS
TUCUMCARI      LGT RAIN  71  61  70 N31G40    30.01R
CANNON AFB     PTSUNNY   93  57  29 S15G23    29.98S
CLOVIS AIRPORT PTSUNNY   95  61  31 SE20G25   29.99S HX  95

$$
NMZ028-029-538-290000-
SOUTHEAST PLAINS

CITY           SKY/WX    TMP DP  RH WIND       PRES   REMARKS
ROSWELL        PTSUNNY   87  57  35 NW13      29.96R
ARTESIA        MOSUNNY   93  57  29 NW23G30   29.94S
CARLSBAD       SUNNY    103  50  17 E10G26    29.88F HX 100
HOBBS          MOSUNNY   99  54  22 E14G21    29.95F HX  96


$$


USA.gov is the U.S. government's official web portal to all federal, state and local government web resources and services.